Weather History for Hill City, KS

Change the Weather History Date:

Saturday, January 26, 2013

  Actual Average Record
Temperature  
Mean Temperature 41 °F 30 °F  
Max Temperature 57 °F 42 °F 76 °F (2002)
Min Temperature 25 °F 17 °F -15 °F (1950)
Degree Days  
Heating Degree Days 24    
Moisture  
Dew Point 30 °F    
Average Humidity 66    
Maximum Humidity 93    
Minimum Humidity 32    
Precipitation  
Precipitation 0.02 in 0.03 in 0.02 in (2013)
Month to date precipitation 0.03 0.34  
Year to date precipitation 0.03 0.34  
Sea Level Pressure  
Sea Level Pressure 30.05 in    
Wind  
Wind Speed 7 mph (South)    
Max Wind Speed 20 mph    
Max Gust Speed 29 mph    
Visibility 9 miles    
Events Rain    
T = Trace of Precipitation, MM = Missing Value Source: NWS Daily Summary

Daily Weather History Graph

Daily Weather History Graph

Search for Another Location

Airport:

Trip Planner

Search our weather history database for the weather conditions in past years. The results will help you decide how hot, cold, wet, or windy it might be!

Date:

Astronomy

Jan. 26, 2013 Rise Set
Actual Time 7:51 AM CST 5:53 PM CST
Civil Twilight 7:22 AM CST 6:21 PM CST
Nautical Twilight 6:50 AM CST 6:54 PM CST
Astronomical Twilight 6:18 AM CST 7:25 PM CST
Moon 5:49 PM CST (1/26) 7:10 AM CST (1/26)
Length of Visible Light 10h 59m
Length of Day
10h 01m
Full, 100% of the Moon is Illuminated
Jan 26
Full
Jan 26
Full
Feb 3
Last Quarter
Feb 10
New
Feb 17
First Quarter

Hourly Weather History & Observations

Time (CST) Temp. Windchill Dew Point Humidity Pressure Visibility Wind Dir Wind Speed Gust Speed Precip Events Conditions
12:53 AM 36.0 °F - 25.0 °F 64% 30.19 in 10.0 mi Calm Calm - N/A   Overcast
1:53 AM 37.0 °F 33.3 °F 26.1 °F 65% 30.16 in 10.0 mi SSW 4.6 mph - N/A   Mostly Cloudy
2:53 AM 35.1 °F 30.1 °F 26.1 °F 70% 30.15 in 10.0 mi South 5.8 mph - N/A   Partly Cloudy
3:53 AM 32.0 °F - 24.1 °F 73% 30.15 in 10.0 mi Calm Calm - N/A   Clear
4:53 AM 33.1 °F 28.7 °F 25.0 °F 72% 30.13 in 10.0 mi SSW 4.6 mph - N/A   Clear
5:53 AM 26.1 °F - 21.9 °F 84% 30.14 in 10.0 mi Calm Calm - N/A   Clear
6:53 AM 30.9 °F 25.2 °F 24.1 °F 76% 30.14 in 10.0 mi South 5.8 mph - N/A   Clear
7:53 AM 28.9 °F 22.8 °F 24.1 °F 82% 30.18 in 10.0 mi SW 5.8 mph - N/A   Clear
8:53 AM 33.1 °F 30.0 °F 26.1 °F 75% 30.16 in 10.0 mi South 3.5 mph - N/A   Clear
9:53 AM 41.0 °F 33.9 °F 28.0 °F 60% 30.14 in 10.0 mi South 12.7 mph 20.7 mph N/A   Clear
10:53 AM 46.0 °F 38.8 °F 28.0 °F 50% 30.12 in 10.0 mi South 18.4 mph 27.6 mph N/A   Clear
11:53 AM 50.0 °F - 27.0 °F 41% 30.10 in 10.0 mi South 16.1 mph 24.2 mph N/A   Clear
12:53 PM 53.1 °F - 26.1 °F 35% 30.05 in 10.0 mi South 19.6 mph 28.8 mph N/A   Clear
1:53 PM 57.0 °F - 27.0 °F 32% 30.01 in 10.0 mi South 12.7 mph 20.7 mph N/A   Clear
2:53 PM 55.0 °F - 26.1 °F 33% 29.99 in 10.0 mi South 15.0 mph 20.7 mph N/A   Clear
3:53 PM 55.0 °F - 28.9 °F 37% 29.98 in 10.0 mi SSE 15.0 mph 21.9 mph N/A   Clear
4:53 PM 54.0 °F - 30.9 °F 41% 29.96 in 10.0 mi SSE 11.5 mph 19.6 mph N/A   Clear
5:53 PM 50.0 °F - 35.1 °F 57% 29.97 in 10.0 mi SSE 11.5 mph 19.6 mph N/A   Clear
6:53 PM 45.0 °F 40.1 °F 37.9 °F 76% 29.98 in 10.0 mi SE 9.2 mph - N/A   Clear
7:53 PM 43.0 °F 37.7 °F 37.9 °F 82% 29.99 in 9.0 mi South 9.2 mph - N/A   Scattered Clouds
8:53 PM 43.0 °F 37.7 °F 37.0 °F 80% 29.95 in 9.0 mi SSE 9.2 mph - N/A   Mostly Cloudy
9:53 PM 43.0 °F 36.4 °F 37.9 °F 82% 29.92 in 8.0 mi SSE 12.7 mph - N/A   Overcast
10:53 PM 42.1 °F 37.1 °F 39.0 °F 89% 29.91 in 6.0 mi SSE 8.1 mph - 0.00 in Rain Light Rain
11:39 PM 41.0 °F 35.8 °F 39.2 °F 93% 29.88 in 4.0 mi SE 8.1 mph - 0.02 in Rain Light Rain
11:53 PM 41.0 °F 35.8 °F 39.0 °F 93% 29.89 in 4.0 mi SE 8.1 mph - 0.02 in Rain Light Rain